Location: *
(44.3333°N, 7.9833°E)
Time: 19:34:53
(UTC+00:00)

Daily predictions for brighter satellites

Satellite Brightness Start Highest point End
(mag) Time Altitude Azimuth Time Altitude Azimuth Time Altitude Azimuth
Cosmos 494 Rocket 4.5 19:32:48 10° SSW 19:38:01 69° WNW 19:43:13 10° NNE
Cosmos 2084 3.6 19:35:56 10° SSW 19:40:25 63° SE 19:44:49 10° NE
SJ-6B 4.3 19:37:45 10° SSW 19:41:12 35° W 19:44:40 10° NNW
SL-8 R/B 4.5 19:36:50 10° W 19:41:31 54° N 19:46:13 10° ENE
SL-24 R/B 4.3 19:37:17 10° NNE 19:41:34 60° ESE 19:46:18 10° S
Aureole 1 Rocket 4.1 19:37:41 10° SSE 19:41:51 36° E 19:47:13 10° NE
Cosmos 371 Rocket 3.4 19:40:12 10° NNW 19:45:06 67° ENE 19:49:55 10° SSE
Cosmos 1766 Rocket 4.4 19:42:05 10° SSE 19:45:52 30° E 19:49:40 10° NNE
OE (NEXTSAT) 4.4 19:45:17 10° WNW 19:48:49 80° SSW 19:52:19 10° ESE
CZ-2C R/B 3.3 19:44:18 10° SSE 19:49:40 60° ENE 19:54:47 10° N
IRIDIUM 106 4.3 19:45:30 10° N 19:50:46 83° E 19:55:59 10° S
Cosmos 1697 Rocket 4.2 19:46:34 10° SW 19:51:53 43° WNW 19:57:16 10° NNE
Cosmos 2360 Rocket 3.8 19:50:09 10° SE 19:53:22 16° E 19:56:34 10° ENE
ADEOS Rocket 2.8 19:49:19 10° NNE 19:54:56 61° E 20:00:20 10° S
Cosmos 1242 Rocket 3.4 19:53:29 10° SSE 19:56:45 32° E 20:00:04 10° NNE
Cosmos 332 Rocket 3.8 19:52:07 10° NNW 19:56:56 74° ENE 20:01:43 10° SSE
Cosmos 1980 Rocket 2.7 19:51:56 10° SW 19:57:31 67° WNW 20:03:08 10° NNE
Cosmos 1340 Rocket 3.0 19:55:40 10° N 19:59:43 59° ENE 20:03:45 10° SSE
USA 215 3.9 19:53:42 10° NE 20:00:09 62° NNW 20:06:35 10° WSW
Cosmos 1869 3.3 19:56:49 10° N 20:00:45 65° E 20:04:40 10° SSE
Resurs 01 Rocket 1.9 19:57:01 10° S 20:01:25 69° WSW 20:05:51 10° NNW
MetOp-A 4.3 19:57:57 10° SSE 20:03:18 82° WSW 20:08:41 10° NNW
Terra 3.7 20:01:49 10° E 20:04:47 17° ENE 20:07:45 10° NNE
Spot 2 Rocket 3.5 20:00:48 10° SSE 20:05:53 77° ENE 20:11:02 10° N
BREEZE-M DEB (TANK) 4.2 20:04:37 10° S 20:07:30 17° SE 20:10:24 10° E
Gbstr 26 Del rocket 2.6 20:06:06 10° SW 20:10:13 70° SE 20:13:58 10° ENE
Cosmos 304 Rocket 4.1 20:08:56 10° NNW 20:13:41 53° ENE 20:17:42 14° SE
Cosmos 44 Rocket 4.0 20:10:29 10° S 20:15:04 33° ESE 20:19:36 10° NE
MTI 4.1 20:16:47 10° N 20:19:55 67° WNW 20:23:03 10° SSW
Cosmos 44 3.7 20:14:40 10° SW 20:19:57 73° NW 20:25:01 10° NNE
Cosmos 921 Rocket 3.7 20:17:11 10° N 20:21:12 40° ENE 20:24:13 16° SE
Cosmos 2322 Rocket 2.3 20:16:16 10° S 20:21:49 56° ESE 20:27:24 10° NNE
CZ-2C R/B 2.8 20:17:15 10° NNE 20:22:20 48° E 20:27:19 10° S
SL-16 R/B 2.2 20:20:39 10° SSW 20:26:15 68° ESE 20:31:54 10° NNE
Cosmos 2058 3.7 20:25:07 10° SSW 20:29:13 53° WNW 20:33:22 10° N
Cosmos 1408 3.9 20:27:39 18° SE 20:29:15 24° E 20:32:20 10° NE
Cosmos 1151 Rocket 3.2 20:27:37 10° N 20:31:58 57° E 20:35:05 18° SSE
USA 267 3.4 20:28:47 15° SE 20:34:20 67° SW 20:40:52 10° NW
H-2A R/B 3.9 20:31:31 10° SSW 20:36:13 29° W 20:40:54 10° NW
Cosmos 1328 Rocket 3.5 20:31:55 10° N 20:36:20 75° E 20:39:35 17° SSE
Cosmos 1825 3.5 20:36:49 20° ESE 20:38:03 23° E 20:41:05 10° NE
Nadezhda 4 Rocket 4.2 20:32:21 10° N 20:38:34 58° ENE 20:43:14 18° SSE
Cosmos 2034 Rocket 4.1 20:32:45 10° S 20:38:52 63° E 20:45:05 10° NNE
NOSS 3-1 (C) 4.4 20:39:06 18° SE 20:40:44 21° ESE 20:45:03 10° ENE
Tiangong 2 1.1 20:38:09 10° W 20:41:14 57° S 20:42:39 27° ESE
Lacrosse 5 rocket 4.4 20:38:14 10° NW 20:41:17 17° N 20:44:20 10° NE
SPOT 5 3.3 20:37:51 19° SE 20:41:23 51° ENE 20:46:09 10° N
EO 1 Del DPAF 3.1 20:38:48 10° NNE 20:42:37 82° ESE 20:46:12 11° SSW
BREEZE-M DEB (TANK) 4.2 20:39:54 10° SSW 20:43:56 49° SE 20:57:21 10° ENE
Cosmos 1500 Rocket 4.1 20:43:04 21° SSE 20:45:35 41° E 20:49:47 10° NNE
Cosmos 1461 3.7 20:43:49 10° NW 20:47:32 39° WSW 20:50:05 18° S
Cosmos 1844 Rocket 3.8 20:43:04 10° N 20:48:11 33° NE 20:51:56 16° ESE
In-Cosmos 22 Rocket 4.4 20:45:45 10° SSW 20:51:06 73° W 20:56:40 10° N
Cosmos 2263 Rocket 2.6 20:46:28 10° NNW 20:52:03 58° WSW 20:56:25 17° S
Cosmos 1092 Rocket 4.4 20:48:31 10° N 20:54:36 50° ENE 20:58:22 22° SE
Timation 1 Rocket 4.4 20:50:14 10° NNW 20:56:16 83° WSW 21:00:17 22° SSE
Thor Agena Rocket 3.4 20:53:46 10° NNE 20:58:50 75° ESE 21:03:08 14° S
TIMED 4.4 20:55:38 12° SSW 20:59:34 75° ESE 21:03:56 10° NNE
SL-4 R/B 3.3 21:00:20 26° SE 21:00:20 26° SE 21:04:16 10° ENE
Cosmos 1892 3.4 21:00:30 10° SSW 21:04:12 53° W 21:07:59 10° N
Cosmos 407 Rocket 3.8 21:03:34 23° SSE 21:06:30 47° ESE 21:11:36 10° NNE
ISS -3.9 21:05:05 10° SW 21:08:23 63° SE 21:11:42 10° ENE
SL-23 DEB 3.6 21:03:59 10° WNW 21:08:31 83° NNE 21:09:50 35° ESE
Cosmos 1140 Rocket 4.3 21:09:01 27° SE 21:10:31 32° E 21:15:06 10° NE
Cosmos 1190 Rocket 4.3 21:08:02 26° SSE 21:10:31 45° ESE 21:15:29 10° NNE
Landsat 4 3.8 21:07:18 10° NNE 21:10:58 53° E 21:12:03 38° SSE
Lacrosse 5 4.5 21:08:03 10° NW 21:11:42 19° N 21:15:19 10° NE
Cosmos 1743 Rocket 3.5 21:09:10 22° S 21:11:59 89° E 21:16:22 10° N
Landsat 7 4.1 21:09:56 22° S 21:12:58 63° WSW 21:17:43 10° NNW
COSMOS 2428 3.8 21:14:20 24° ESE 21:15:24 26° ESE 21:20:00 10° NE
Cosmos 1634 Rocket 4.2 21:12:12 25° SSE 21:15:40 52° E 21:21:42 10° NNE
USA 229 DEB 3.8 21:10:38 11° SSW 21:16:41 52° ESE 21:23:15 10° NE
USA 229 3.8 21:10:53 12° S 21:16:48 51° ESE 21:23:22 10° NE
NOSS 3-1 (A) 4.2 21:19:42 26° ESE 21:20:18 26° ESE 21:25:15 10° ENE
ERS-1 Rocket 3.5 21:17:30 20° S 21:20:48 53° W 21:25:45 10° NNW
Cosmos 1844 4.3 21:16:13 10° NNW 21:21:37 46° ENE 21:24:28 26° ESE
Cosmos 1515 Rocket 4.0 21:17:20 10° NNW 21:21:37 56° W 21:23:58 25° SSW
MOS 1 Rocket 3.3 21:19:11 10° NNE 21:23:34 57° E 21:25:15 35° SSE
SL-8 R/B 4.1 21:19:46 10° WNW 21:24:30 61° NNE 21:28:04 17° E
SPOT 1/Viking Rocket 4.2 21:22:40 20° SSW 21:26:00 50° W 21:31:04 10° NNW
Cosmos 614 Rocket 3.9 21:25:44 30° S 21:28:11 64° ESE 21:33:13 10° NNE
Cosmos 2026 Rocket 4.0 21:24:26 10° N 21:30:29 64° E 21:33:22 32° SSE
Cosmos 1933 3.4 21:27:24 10° NNW 21:31:28 73° W 21:32:51 39° S
IGS 5A 4.4 21:30:07 23° SSW 21:32:13 40° W 21:36:10 10° NNW
Cosmos 2360 Rocket 2.3 21:30:58 10° SSW 21:36:37 78° WNW 21:42:17 10° NNE
Cosmos 2195 Rocket 4.5 21:30:29 10° N 21:36:50 83° E 21:40:02 32° SSE
Cosmos 2228 Rocket 3.6 21:32:23 10° NNW 21:36:51 56° W 21:38:56 29° SSW
Helios 1A 4.0 21:36:01 29° E 21:37:01 32° ENE 21:40:45 10° N
Cosmos 2237 Rocket 4.0 21:37:40 14° E 21:37:40 14° E 21:40:15 10° ENE
Cosmos 1805 Rocket 3.6 21:36:23 45° SSE 21:37:29 61° E 21:41:48 10° NNE
Terra 2.0 21:40:02 34° S 21:42:01 64° WSW 21:46:46 10° NNW
Cosmos 292 Rocket 3.7 21:38:57 10° NNW 21:43:49 78° ENE 21:45:20 44° SSE
Cosmos 1818 4.3 21:38:46 10° NNW 21:44:03 47° NE 21:46:40 27° ESE
SeaSat 1 3.8 21:42:03 10° NE 21:45:33 23° E 21:45:33 23° E
Cosmos 1606 2.7 21:43:49 10° NNW 21:47:35 72° W 21:48:14 56° SSW
Spot 4 4.4 21:46:28 35° ESE 21:47:53 44° ENE 21:52:25 10° N
Cosmos 1263 4.2 21:45:48 10° N 21:48:31 71° NNE 21:48:31 71° NNE
DELTA 2 R/B (1) 3.8 21:47:04 10° SW 21:52:20 43° SSE 21:52:51 42° SSE
ALOS 2 4.3 21:51:26 19° E 21:52:36 21° ENE 21:55:52 10° NNE
Meteor 2-3 Rocket 3.9 21:51:22 27° SSW 21:54:39 77° W 22:00:31 10° N
Meteor 1-26 Rocket 4.4 21:51:32 10° NNW 21:57:10 67° W 21:59:28 35° SSW
Gbstr 26 Del rocket 4.5 21:53:45 10° W 21:57:13 32° NNW 22:00:38 10° NE
Cosmos 1666 Rocket 3.7 21:57:00 50° SE 21:57:35 54° E 22:01:58 10° NNE
GP-B 4.5 21:57:49 10° NNE 22:01:32 25° E 22:01:47 25° E
Cosmos 1633 Rocket 3.3 22:01:29 48° ESE 22:01:45 48° E 22:05:57 10° NNE
Cosmos 2333 4.1 22:01:07 32° SSW 22:03:56 85° ESE 22:09:38 10° NNE
Cosmos 2322 Rocket 4.3 22:01:29 10° WSW 22:06:13 26° NW 22:10:59 10° N
Cosmos 2333 Rocket 2.2 22:04:57 44° SSE 22:06:33 61° ESE 22:12:10 10° NNE
Cosmos 1867 4.5 22:07:09 31° ESE 22:07:09 31° ESE 22:11:36 10° NE
Cosmos 2219 Rocket 2.2 22:06:34 44° S 22:08:13 64° ESE 22:13:50 10° NNE
Mayak -1.3 22:05:36 10° NNE 22:09:50 68° E 22:10:10 65° SE
Cosmos 2278 Rocket 3.1 22:07:51 10° NNW 22:13:13 40° ENE 22:15:33 28° ESE
Cosmos 1825 4.2 22:11:37 16° WSW 22:13:29 23° WNW 22:16:35 10° NNW
Cosmos 1862 Rocket 4.2 22:09:35 10° N 22:13:42 41° ENE 22:14:05 40° E
Cosmos 1470 Rocket 4.3 22:17:17 38° E 22:17:17 38° E 22:21:16 10° NNE
Cosmos 1633 3.7 22:20:26 33° ENE 22:20:26 33° ENE 22:22:57 10° NNE
Cosmos 2266 Rocket 4.4 22:14:02 10° N 22:20:17 53° ENE 22:22:22 38° SE
Cosmos 2322 4.2 22:16:22 18° SW 22:20:29 58° WNW 22:26:06 10° NNE
Cosmos 676 Rocket 4.1 22:18:40 36° SW 22:20:48 73° WNW 22:26:04 10° NNE
Lacrosse 5 rocket 4.0 22:18:27 10° NNW 22:21:58 21° NNE 22:25:25 10° ENE
Sich 1 3.3 22:23:02 48° SW 22:23:52 59° W 22:28:06 10° N
Cosmos 1741 Rocket 4.2 22:28:04 48° ESE 22:28:29 49° ESE 22:33:31 10° NNE
Helios 1B rocket 2.8 22:26:09 10° NNE 22:29:53 49° E 22:29:53 49° E
Cosmos 2279 Rocket 4.1 22:27:57 36° SSW 22:30:37 70° W 22:36:50 10° N
NOSS 3-1 (C) 3.6 22:26:24 17° SW 22:30:45 68° NW 22:37:12 10° NE
Cosmos 1844 Rocket 3.4 22:26:52 10° NW 22:32:10 41° WSW 22:33:35 35° SW
ATLAS CENTAUR R/B 3.1 22:28:31 10° NNW 22:32:46 31° NE 22:34:36 23° E
Cosmos 1954 Rocket 4.4 22:34:38 32° SW 22:36:53 58° WNW 22:42:06 10° NNE
Cosmos 1782 3.6 22:33:19 10° NNW 22:37:07 40° W 22:37:20 40° WSW
Meteor 1-10 Rocket 4.2 22:33:34 10° NNW 22:39:12 80° W 22:40:37 53° S
SL-4 R/B 2.4 22:35:34 14° WSW 22:39:45 78° NNW 22:44:27 10° ENE
Cosmos 1850 Rocket 4.0 22:39:47 59° SSE 22:40:32 67° ESE 22:45:52 10° NNE
Cosmos 2084 Rocket 3.5 22:36:25 10° NW 22:40:35 65° WSW 22:40:35 65° WSW
Cosmos 1862 3.3 22:43:09 82° NNW 22:43:09 82° NNW 22:47:02 10° N
JB-3 4.3 22:38:55 10° N 22:43:06 85° WNW 22:43:10 84° WSW
COSMOS 2455 3.9 22:44:47 29° ESE 22:44:47 29° ESE 22:49:51 10° NE
ISS -1.8 22:42:15 10° W 22:45:16 31° NNW 22:48:17 10° NE
Cosmos 1400 Rocket 3.4 22:42:39 10° N 22:46:38 48° ENE 22:46:38 48° ENE
BREEZE-M DEB (TANK) 3.9 22:45:52 10° WNW 22:47:54 31° N 22:51:12 10° ENE
Lacrosse 5 3.8 22:51:43 10° NW 22:56:07 28° NNE 23:00:27 10° E
COSMOS 2428 3.4 22:56:17 26° WSW 22:59:18 51° WNW 23:04:55 10° NNE
Cosmos 1812 3.1 22:55:36 10° N 22:59:00 61° NE 22:59:00 61° NE
SL-16 R/B 3.4 23:02:03 27° ESE 23:02:08 27° ESE 23:06:50 10° NE
Cosmos 1607 4.4 22:57:03 10° NW 23:02:50 44° WSW 23:03:46 41° SW
SL-8 R/B 4.3 23:02:25 10° WNW 23:06:00 43° WSW 23:06:00 43° WSW
ERS-2 2.8 23:09:02 52° NE 23:09:02 52° NE 23:12:10 10° N
NOSS 3-1 (A) 3.9 23:07:04 23° WSW 23:10:37 57° NW 23:17:02 10° NNE
Cosmos 1980 3.6 23:11:32 57° SSW 23:12:46 90° N 23:18:29 10° NNE
ARGOS Delta rocket 4.4 23:13:31 41° W 23:13:36 41° W 23:17:52 10° NNW
Spot 1 4.3 23:13:32 68° S 23:14:11 84° WSW 23:19:17 10° NNW
Cosmos 2242 Rocket 3.8 23:10:59 10° NNW 23:15:28 61° W 23:15:33 61° W
Cosmos 841 Rocket 3.9 23:11:46 10° NNW 23:16:50 54° ENE 23:17:54 45° ESE
Meteor 1-29 4.0 23:15:34 10° N 23:18:15 45° NNW 23:18:15 45° NNW
Cosmos 2237 Rocket 2.1 23:19:28 57° SW 23:20:40 84° WNW 23:26:21 10° NNE
NOSS 2-3 (E) 4.0 23:21:21 53° WSW 23:22:14 66° NW 23:27:28 10° NNE
NOSS 0 Rocket 4.1 23:20:00 40° SW 23:22:15 70° WNW 23:28:26 10° NNE
SeaSat 1 3.1 23:18:56 10° NNE 23:23:43 52° WNW 23:25:19 37° WSW
NOSS 2-3 (D) 4.0 23:24:07 55° WSW 23:24:56 67° NW 23:30:08 10° NNE
Cosmos 468 Rocket 4.1 23:20:03 10° NNW 23:25:13 59° WSW 23:25:40 57° SW
Cosmos 1763 Rocket 3.3 23:20:56 10° NNW 23:26:07 78° WSW 23:26:37 70° SSW
Cosmos 1703 Rocket 3.5 23:22:56 10° N 23:27:21 88° NW 23:27:21 88° NW
ALOS 2 3.4 23:28:50 41° W 23:28:50 41° W 23:32:49 10° NNW
BREEZE M DEB (TANK) 4.0 23:30:10 32° ESE 23:30:10 32° ESE 23:36:37 10° ENE
Cosmos 2221 Rocket 4.4 23:26:15 10° N 23:30:33 40° ENE 23:30:57 39° E
Meteor 1-27 Rocket 4.2 23:24:58 10° NNW 23:30:37 50° W 23:31:49 44° SW
Cosmos 2208 Rocket 3.9 23:25:38 10° NNW 23:31:05 77° WSW 23:31:46 66° SSW
Meteor 1-25 Rocket 4.3 23:34:26 55° SE 23:35:17 62° E 23:40:47 10° NNE
Cosmos 1933 Rocket 4.5 23:37:12 38° W 23:37:33 38° WNW 23:41:42 10° N
GP-B 4.3 23:34:56 10° NNW 23:38:50 31° W 23:39:14 30° W
SL-24 R/B - RUBIN 2 4.3 23:34:50 10° NW 23:40:40 87° NE 23:42:31 48° SE
Cosmos 1932 4.5 23:38:01 10° NW 23:44:26 68° WSW 23:45:49 53° S
Cosmos 2285 Rocket 3.9 23:43:15 54° SSW 23:44:49 85° ESE 23:51:10 10° NNE
Mayak 1.4 23:42:56 10° NW 23:44:52 13° WNW 23:46:45 10° W
Cosmos 1570 Rocket 4.3 23:40:20 10° NNW 23:45:22 49° WSW 23:45:35 48° WSW
Okean 1 4.0 23:41:39 10° N 23:45:27 48° ENE 23:45:27 48° ENE
CSL-04 DEB 4.5 23:45:48 88° NE 23:45:48 88° NE 23:50:10 10° NNW
Meteor 1-20 Rocket 4.2 23:47:09 59° SSE 23:48:15 79° E 23:54:06 10° NNE
Cosmos 2297 3.8 23:43:00 10° NNW 23:48:40 73° ENE 23:50:12 49° SE
CZ-4 R/B 4.1 23:44:30 10° N 23:49:03 54° WNW 23:49:40 50° W
Cosmos 1867 4.4 23:47:47 28° WSW 23:50:15 46° NW 23:55:33 10° NNE
Cosmos 2333 Rocket 4.1 23:46:54 11° WSW 23:51:15 25° NW 23:55:52 10° N
H-2A R/B 4.5 23:49:49 12° E 23:52:18 18° ENE 23:55:21 10° NNE
Cosmos 2219 Rocket 4.1 23:48:14 10° WSW 23:52:39 24° NW 23:57:10 10° N
Okean 1-7 3.3 23:48:28 10° NNW 23:52:25 56° WNW 23:52:25 56° WNW
